Temperature
23 24 23 23 23 24 23 23 23 23 23 23 23 23 23 21 21 21 21 20 20 20 19 19 18 18 18 17 17 17 17 17 16 16 16 16 16 15 15 15 15 15 15 15
23 23 23 23 23 23 23 23 23 23 23 23 23 23 23 22 21 20 21 20 20 20 19 19 18 18 18 17 17 17 17 17 16 16 16 16 15 15 15 15 15 15 15 15
23 23 22 22 22 22 23 23 23 23 23 23 23 23 23 23 21 20 20 20 20 19 19 19 18 18 18 17 17 17 17 17 17 16 16 16 16 15 15 15 15 15 15 15
23 22 22 22 22 23 23 23 23 22 23 23 23 23 23 23 22 21 20 20 19 19 19 19 18 18 18 18 17 17 17 16 16 16 16 16 16 15 15 15 15 15 15 15
22 22 22 22 22 22 23 22 22 22 23 23 23 23 24 23 22 22 21 20 19 19 19 19 18 18 18 17 17 17 17 17 16 16 16 16 16 15 15 15 15 15 15 15
22 22 22 22 22 22 22 22 22 22 23 22 22 23 23 23 22 22 22 20 19 19 19 18 18 18 18 17 17 17 17 17 16 16 16 16 16 15 15 15 15 15 15 15
22 22 22 22 22 22 22 22 22 22 22 22 22 22 22 23 22 22 21 20 19 19 18 18 18 17 17 17 17 17 17 17 16 16 16 16 16 15 15 15 15 15 15 15
21 21 22 22 22 22 22 23 22 21 22 22 22 22 23 22 21 21 20 20 19 19 18 18 18 17 17 17 17 17 17 16 16 16 16 16 16 15 15 15 15 15 15 15
22 21 22 21 21 22 22 22 23 22 22 22 22 22 22 22 21 21 20 19 19 18 18 18 17 17 17 17 17 17 17 16 16 16 16 16 16 16 15 15 15 15 15 15
22 21 21 21 21 21 22 22 22 22 21 21 22 22 22 21 21 21 20 20 19 18 18 17 17 17 17 17 17 17 17 16 16 16 16 16 16 16 15 15 15 15 15 15
21 21 21 21 21 21 21 21 22 22 22 21 21 22 22 22 21 21 20 19 18 18 18 17 17 17 17 17 17 17 17 16 16 16 16 16 16 16 16 15 15 15 15 15
20 21 21 21 21 21 21 21 21 21 21 21 21 22 22 21 21 20 19 19 18 18 17 17 17 17 17 17 17 16 16 16 16 16 16 16 16 16 16 15 15 15 15 15
20 20 20 20 20 20 20 20 21 21 21 21 20 21 22 21 20 20 19 18 18 17 17 17 17 17 16 16 16 16 16 16 16 16 16 16 15 15 15 15 15 15 15 15
19 20 20 20 20 20 20 20 20 20 20 21 21 21 21 21 20 20 19 18 18 17 17 17 16 17 16 16 16 16 16 16 16 16 15 15 15 15 15 15 15 15 15 15
19 20 20 20 19 19 19 19 19 20 20 20 21 21 21 21 20 19 18 18 17 17 17 17 17 17 16 16 16 16 16 16 16 15 15 15 15 15 15 15 15 15 15 14
19 19 19 19 19 19 19 19 19 19 20 20 20 20 21 20 19 19 18 18 17 17 17 16 16 16 16 16 16 16 16 16 16 15 15 15 15 15 15 15 14 14 15 14
19 19 18 19 19 18 19 20 20 20 20 20 20 20 20 20 19 19 18 18 17 17 17 16 16 16 16 16 16 16 16 16 16 15 15 15 15 15 15 15 14 14 14 14
18 18 18 18 18 17 20 20 19 19 19 20 20 20 19 19 18 18 17 17 17 17 16 16 16 16 16 16 16 16 16 16 15 15 15 15 15 15 15 14 14 14 14 14
17 17 17 17 17 18 19 19 18 19 19 19 19 19 18 18 18 18 17 17 16 16 16 16 16 16 16 16 16 16 16 16 15 15 15 15 14 14 14 14 14 14 14 14
16 17 17 17 17 17 19 19 18 18 18 19 19 18 18 17 19 19 17 16 16 16 16 16 16 15 16 16 16 16 16 15 15 15 15 14 14 14 14 14 14 14 14 14
16 16 16 17 17 18 19 17 17 18 19 19 18 18 17 17 18 17 16 16 16 16 15 15 15 15 16 16 16 16 15 15 15 15 14 14 14 14 14 14 14 14 13 13
17 16 16 17 16 17 17 17 18 19 18 17 17 17 16 16 16 15 15 15 15 15 15 15 15 15 15 15 15 15 15 15 15 14 14 14 14 14 14 14 14 13 13 13
16 17 17 17 17 17 16 17 16 16 16 16 16 15 15 15 15 15 15 15 15 15 15 15 15 15 15 15 15 15 15 15 15 14 14 14 14 14 14 14 13 13 13 13
16 15 15 16 16 16 15 15 15 15 15 15 14 14 14 14 14 14 14 14 14 14 14 15 14 15 15 15 15 15 15 15 14 14 14 14 14 13 13 13 13 13 13 13
15 14 15 15 16 15 14 14 14 14 14 13 13 13 13 13 13 14 14 14 14 14 14 14 14 14 14 14 14 14 14 14 14 14 14 13 13 13 13 13 13 13 13 13
14 14 14 15 15 15 15 14 13 13 13 13 13 13 13 13 13 13 13 13 13 13 13 14 14 14 14 14 14 14 14 14 14 13 13 13 13 13 13 13 13 13 12 12
Wind_Speed
3 5 5 4 3 1 2 3 2 1 1 3 5 5 3 4 5 6 7 7 8 8 7 6 6 7 7 7 6 7 6 6 5 4 3 3 2 2 2 2 2 2 2 3
5 4 2 2 3 4 4 5 4 2 1 4 4 5 3 4 6 6 7 8 8 8 8 7 7 7 8 8 7 7 7 7 6 4 3 2 2 2 2 2 2 2 2 3
5 2 3 5 5 6 5 5 4 4 3 4 5 4 3 3 5 5 6 7 8 8 9 9 8 7 8 8 8 7 7 7 6 5 4 3 3 2 2 2 2 2 2 3
3 2 4 5 5 5 5 3 5 5 6 3 4 4 1 2 4 4 4 5 7 8 9 8 9 8 9 8 8 8 8 7 7 6 5 5 3 3 2 2 2 2 3 3
3 3 4 4 3 4 2 1 4 5 6 6 5 5 2 2 2 3 4 4 5 7 8 9 9 9 8 8 8 7 8 7 7 6 6 5 4 3 3 3 3 3 3 3
2 1 1 1 1 3 3 4 4 5 6 6 4 6 2 0 2 3 2 3 4 6 7 8 8 8 7 8 8 7 7 7 7 7 6 6 4 4 4 4 4 3 3 2
4 4 2 2 3 4 5 5 4 4 4 3 1 4 2 2 2 3 2 1 2 4 6 7 8 8 8 9 9 8 8 7 7 7 7 6 5 5 5 4 4 3 3 2
4 4 3 3 4 4 5 6 4 3 4 2 3 4 1 1 2 2 2 1 1 3 4 6 7 7 8 9 9 9 9 8 7 7 7 6 5 4 4 4 4 3 3 3
3 2 3 1 2 4 4 5 5 6 6 6 4 3 2 2 0 1 1 2 1 1 3 5 5 6 7 8 9 9 9 8 8 8 8 6 5 5 4 4 4 3 3 3
3 4 2 2 3 2 4 3 4 5 5 5 5 5 3 2 1 1 1 1 1 1 2 4 4 5 6 7 8 8 8 8 8 7 7 6 6 6 5 5 5 4 4 4
4 5 4 4 5 5 5 6 6 5 6 6 5 2 1 1 1 2 3 2 1 1 1 3 4 4 5 6 7 8 8 8 7 7 7 7 6 6 6 5 5 5 4 4
3 4 5 5 2 3 6 7 8 7 7 7 7 4 2 2 1 2 3 3 2 2 2 3 4 4 4 5 6 7 8 8 7 7 7 7 7 7 6 6 6 6 5 5
3 4 5 4 5 6 6 6 8 8 8 9 9 5 3 3 4 4 4 3 3 2 2 3 4 4 4 5 5 6 7 7 7 7 7 7 7 7 7 7 6 6 6 6
4 6 7 7 4 3 6 8 8 10 10 11 13 11 8 7 7 6 5 4 4 3 3 3 4 5 5 5 5 5 6 6 7 7 7 7 7 7 7 7 7 7 6 6
4 8 9 9 8 8 10 11 11 14 14 14 13 13 11 9 7 6 6 5 5 4 4 4 5 5 5 6 6 5 6 6 7 8 7 7 7 6 7 7 7 7 6 6
5 7 8 9 8 9 12 14 14 14 15 16 15 14 9 8 8 7 6 6 6 5 5 6 6 6 7 7 6 6 6 7 8 8 8 7 6 6 7 7 7 6 6 6
5 7 7 9 6 9 12 12 12 11 11 12 14 12 7 8 8 7 6 6 6 6 6 7 7 7 7 7 7 7 7 7 8 8 7 7 7 7 7 7 7 7 7 7
7 8 6 7 7 10 5 1 6 9 10 10 11 9 8 8 8 6 6 6 7 6 7 7 7 7 7 7 8 7 7 8 8 8 8 8 8 7 7 8 7 7 7 7
9 8 6 6 9 11 8 6 6 8 9 8 9 8 7 6 6 6 5 6 7 7 7 6 7 7 6 7 7 8 8 8 9 9 9 9 8 8 8 8 8 7 7 7
6 9 8 8 8 8 5 3 3 6 8 5 6 6 5 4 7 5 4 5 6 6 6 5 5 6 6 6 7 8 9 9 10 9 9 9 9 9 9 9 8 7 7 7
7 8 12 13 11 9 4 2 4 7 4 2 4 5 5 6 7 6 6 6 6 6 5 5 5 5 6 6 7 9 9 10 9 9 9 8 9 9 9 8 8 7 7 7
8 8 10 10 12 10 3 5 6 5 3 4 5 5 7 8 7 7 6 6 6 6 5 5 5 5 5 6 8 8 9 8 8 8 8 9 9 8 8 8 8 8 7 7
8 8 7 8 8 5 5 6 7 7 8 7 7 7 8 8 8 8 8 7 6 6 6 5 6 6 5 6 7 9 7 7 7 8 9 9 9 8 8 8 8 8 8 7
7 6 8 9 10 9 9 9 9 8 9 9 8 8 8 9 9 8 8 7 7 6 6 6 6 6 6 6 7 7 6 7 8 9 9 8 8 8 8 7 8 8 8 8
8 6 9 13 12 11 10 10 10 9 8 8 8 8 8 9 9 9 8 8 7 6 6 6 7 7 7 6 7 6 6 7 8 8 8 8 8 8 8 8 7 9 9 9
9 10 10 11 10 10 11 9 9 9 9 8 8 8 8 8 9 9 8 8 7 7 6 6 7 7 7 6 6 6 6 7 7 7 7 7 7 7 7 7 6 6 7 7
Wind_Direction
173 187 189 189 209 217 198 217 235 262 257 259 266 273 262 213 218 227 221 217 215 214 207 200 199 196 194 189 187 181 178 171 166 165 169 157 138 126 108 84 79 83 95 92
183 197 193 186 189 209 226 238 247 245 244 267 282 278 261 229 222 230 232 225 221 217 207 197 196 196 198 191 190 187 187 182 181 179 173 160 141 129 103 98 83 77 100 97
208 106 150 186 197 214 233 248 257 268 265 241 271 254 226 213 222 228 234 234 225 217 213 201 195 194 194 194 191 190 189 185 185 178 166 156 152 158 144 130 104 76 90 95
202 192 190 201 211 234 241 248 255 257 265 265 266 274 242 213 208 224 232 230 226 218 212 205 196 195 196 195 189 192 187 187 184 183 187 186 183 175 163 149 131 123 113 114
178 180 201 215 221 235 262 201 236 253 265 263 253 266 259 178 238 252 241 232 223 215 209 203 201 197 196 192 186 187 183 186 184 188 190 198 191 173 159 154 143 140 122 120
189 187 246 247 203 214 185 200 211 231 248 249 256 257 268 225 297 309 272 236 221 207 205 203 198 191 190 185 183 183 181 186 184 188 192 197 189 178 169 169 158 157 143 136
196 194 185 203 197 183 217 244 244 226 224 244 216 250 258 13 324 316 315 279 220 196 197 196 194 188 186 184 184 184 184 185 188 193 195 195 193 190 187 183 175 174 160 152
217 196 180 210 236 227 222 248 266 277 272 275 219 245 225 35 335 320 315 348 163 180 190 193 193 190 187 186 186 188 189 189 190 196 199 199 191 195 189 189 183 181 170 160
231 196 142 202 249 247 222 232 271 278 278 273 239 227 228 209 221 14 24 38 40 168 185 187 185 187 189 189 191 193 193 192 193 197 200 200 199 196 187 187 185 181 174 164
261 249 200 174 186 201 266 237 229 248 267 264 253 243 233 191 199 48 17 7 11 18 183 179 180 184 190 193 193 194 197 196 196 199 198 194 200 199 198 191 185 183 181 174
247 248 219 207 227 224 208 221 240 251 259 271 272 253 116 196 258 318 329 346 349 327 198 181 180 182 188 191 192 192 196 199 197 198 198 195 196 197 198 198 194 192 192 189
226 255 249 238 230 264 247 244 240 251 251 253 271 267 133 191 262 301 306 321 320 304 229 191 183 176 181 188 195 197 198 198 199 199 198 196 193 193 197 200 198 196 195 195
198 239 254 228 202 201 226 236 243 253 259 254 256 260 169 231 275 287 289 296 298 283 238 201 191 188 191 193 194 200 201 202 200 198 199 195 196 196 198 200 199 200 199 197
217 238 250 262 285 269 254 244 239 242 252 256 255 266 261 262 274 281 286 286 283 268 255 225 214 211 208 206 200 201 203 200 198 198 202 202 202 201 201 199 198 202 201 199
227 249 252 264 271 265 265 262 251 247 254 261 268 272 271 264 264 270 277 279 273 266 257 240 225 223 215 212 208 206 205 198 198 199 202 207 204 200 199 197 196 199 200 202
230 249 257 260 259 262 266 262 255 253 255 256 264 267 270 262 258 258 263 266 265 260 254 250 238 230 224 217 212 208 208 201 199 201 201 200 199 195 197 198 198 196 196 202
223 235 250 263 267 273 263 253 244 244 245 252 259 266 268 257 251 253 261 261 261 263 261 256 244 233 232 225 215 211 209 201 199 201 197 195 196 194 196 196 195 196 200 203
232 233 246 263 264 254 267 256 249 253 256 252 261 270 261 260 258 255 260 259 265 269 267 259 251 245 242 230 220 213 208 202 201 201 198 196 196 195 197 197 197 201 203 204
229 227 234 245 257 266 262 241 234 246 261 257 251 259 264 269 256 246 258 264 268 271 270 265 258 251 244 230 217 211 209 204 203 203 202 197 197 197 199 200 202 204 205 206
210 222 231 233 250 258 259 194 215 256 258 240 233 245 257 254 255 265 285 275 277 280 280 274 262 255 244 231 217 212 213 208 209 207 206 200 199 199 203 205 204 205 207 209
201 213 225 237 248 259 262 189 199 234 266 192 230 246 244 249 280 297 297 286 279 280 281 276 260 248 242 229 217 218 216 215 215 209 206 203 202 203 206 205 202 202 204 208
224 223 225 231 241 248 179 189 219 268 307 286 273 269 261 269 285 291 289 286 282 280 278 269 261 253 245 230 220 222 223 218 211 205 204 205 204 204 204 202 201 203 202 207
234 240 248 240 251 277 233 241 270 285 279 278 278 276 271 269 275 281 280 277 275 274 272 265 261 259 251 234 225 224 224 215 205 204 206 207 205 204 203 201 199 202 205 211
241 248 248 254 257 266 269 269 273 274 272 275 274 273 269 269 271 273 274 273 271 269 268 265 257 254 252 242 232 230 220 210 206 206 208 205 206 206 205 205 206 205 206 210
256 244 251 260 268 277 267 269 275 277 274 273 274 271 268 269 269 268 270 271 270 266 261 257 250 248 249 243 234 224 213 206 210 211 211 210 209 209 209 211 212 214 215 213
245 243 253 264 276 279 282 288 290 282 275 273 273 275 271 265 267 268 269 269 267 265 261 254 250 249 247 240 234 223 213 207 209 212 212 213 211 211 212 214 219 226 228 219
Height
1530 1529 1530 1530 1530 1530 1532 1534 1535 1534 1534 1535 1535 1535 1535 1537 1539 1539 1540 1541 1542 1544 1546 1548 1549 1550 1551 1553 1554 1555 1556 1557 1557 1558 1558 1559 1559 1559 1559 1559 1559 1559 1559 1559
1529 1530 1530 1531 1532 1533 1533 1534 1534 1534 1534 1534 1533 1533 1532 1534 1536 1537 1538 1539 1540 1542 1544 1545 1546 1548 1550 1551 1553 1554 1555 1556 1556 1557 1558 1558 1559 1559 1559 1559 1559 1559 1559 1559
1528 1530 1531 1532 1533 1533 1533 1533 1533 1534 1533 1533 1533 1531 1529 1530 1533 1535 1536 1536 1537 1539 1541 1542 1544 1546 1547 1549 1551 1552 1553 1555 1555 1556 1557 1557 1558 1558 1559 1558 1558 1558 1559 1559
1528 1530 1531 1531 1532 1531 1533 1531 1532 1533 1534 1532 1532 1534 1526 1526 1529 1531 1532 1534 1534 1536 1538 1540 1541 1543 1545 1547 1549 1551 1552 1553 1554 1555 1556 1557 1558 1558 1558 1558 1558 1558 1558 1559
1529 1530 1530 1531 1531 1531 1531 1532 1532 1532 1532 1532 1530 1531 1525 1523 1526 1527 1529 1531 1532 1533 1535 1537 1539 1541 1543 1545 1547 1549 1551 1552 1553 1554 1555 1556 1557 1558 1558 1558 1558 1559 1559 1559
1529 1531 1531 1530 1531 1532 1532 1532 1531 1530 1529 1536 1530 1531 1528 1522 1524 1524 1526 1528 1529 1531 1533 1535 1537 1539 1541 1543 1545 1547 1548 1550 1552 1553 1554 1555 1556 1557 1557 1558 1558 1559 1559 1559
1530 1529 1531 1532 1531 1532 1531 1532 1536 1536 1536 1533 1528 1529 1526 1521 1523 1524 1525 1526 1527 1529 1531 1533 1535 1536 1538 1540 1542 1544 1546 1548 1550 1552 1553 1554 1555 1556 1557 1557 1558 1558 1559 1559
1532 1532 1529 1530 1529 1529 1529 1529 1537 1541 1537 1529 1528 1528 1522 1522 1524 1525 1525 1526 1526 1527 1529 1530 1532 1534 1536 1538 1540 1542 1544 1546 1548 1550 1552 1553 1554 1555 1556 1556 1557 1558 1558 1558
1529 1531 1529 1530 1530 1529 1528 1528 1526 1530 1530 1533 1525 1523 1521 1521 1522 1524 1525 1525 1526 1526 1528 1529 1531 1532 1535 1537 1538 1540 1543 1544 1546 1548 1550 1551 1553 1554 1555 1555 1556 1557 1557 1558
1527 1531 1528 1530 1530 1531 1528 1526 1529 1531 1537 1537 1528 1524 1522 1520 1521 1522 1524 1525 1525 1526 1527 1528 1529 1531 1533 1535 1537 1539 1541 1542 1544 1546 1548 1549 1551 1552 1553 1554 1555 1556 1556 1557
1528 1530 1529 1528 1528 1527 1530 1530 1527 1527 1528 1534 1533 1525 1515 1518 1520 1522 1523 1524 1525 1525 1526 1527 1528 1529 1531 1533 1535 1537 1538 1541 1542 1544 1546 1547 1549 1550 1551 1552 1553 1554 1555 1555
1529 1529 1529 1527 1527 1528 1526 1525 1526 1532 1530 1528 1530 1525 1515 1518 1520 1522 1523 1523 1524 1524 1525 1525 1527 1528 1529 1531 1533 1534 1536 1538 1540 1541 1543 1545 1546 1548 1549 1550 1551 1552 1553 1554
1530 1530 1533 1530 1531 1529 1527 1526 1526 1525 1526 1527 1529 1524 1515 1518 1519 1521 1522 1522 1523 1523 1523 1524 1525 1526 1527 1529 1530 1532 1533 1535 1537 1539 1540 1542 1544 1545 1546 1548 1549 1550 1551 1552
1530 1527 1530 1532 1526 1525 1526 1526 1526 1526 1526 1523 1520 1517 1515 1516 1518 1519 1521 1521 1521 1521 1522 1522 1523 1524 1525 1527 1528 1529 1531 1532 1534 1536 1537 1539 1540 1542 1544 1545 1546 1548 1549 1550
1529 1526 1524 1524 1524 1525 1525 1524 1524 1523 1520 1520 1515 1514 1512 1513 1516 1518 1519 1519 1520 1519 1519 1520 1521 1522 1523 1524 1525 1527 1528 1529 1531 1532 1534 1536 1537 1539 1540 1542 1543 1544 1546 1547
1526 1525 1524 1524 1524 1524 1523 1520 1519 1519 1517 1515 1514 1512 1510 1513 1515 1516 1517 1517 1517 1517 1517 1518 1518 1519 1520 1521 1522 1523 1525 1526 1528 1529 1530 1532 1534 1535 1537 1538 1540 1541 1542 1544
1525 1524 1526 1522 1521 1522 1519 1512 1512 1512 1511 1512 1511 1508 1509 1510 1512 1513 1514 1515 1514 1514 1515 1515 1515 1516 1517 1518 1519 1520 1521 1523 1524 1526 1527 1528 1530 1532 1533 1535 1536 1538 1539 1541
1524 1524 1524 1523 1524 1527 1510 1507 1509 1510 1508 1508 1507 1506 1508 1509 1510 1511 1511 1512 1512 1512 1512 1512 1512 1513 1514 1514 1516 1517 1518 1519 1521 1522 1524 1525 1526 1528 1530 1531 1533 1534 1536 1537
1523 1523 1524 1523 1522 1513 1506 1506 1508 1508 1505 1504 1505 1505 1507 1507 1507 1507 1508 1509 1509 1509 1509 1509 1509 1509 1510 1511 1512 1513 1515 1516 1517 1518 1520 1521 1522 1524 1525 1527 1529 1531 1532 1533
1522 1522 1522 1521 1522 1516 1504 1503 1505 1507 1504 1501 1502 1503 1504 1505 1503 1503 1505 1505 1506 1506 1506 1506 1505 1506 1506 1507 1508 1510 1511 1512 1513 1514 1516 1517 1519 1520 1522 1523 1525 1527 1528 1529
1518 1519 1519 1517 1515 1504 1500 1503 1506 1508 1500 1499 1500 1501 1502 1502 1502 1503 1503 1503 1503 1503 1502 1502 1502 1502 1503 1503 1504 1506 1507 1508 1509 1511 1512 1513 1515 1517 1518 1520 1521 1523 1524 1525
1510 1512 1511 1511 1512 1506 1500 1502 1501 1498 1498 1498 1498 1499 1500 1500 1500 1500 1500 1499 1499 1499 1499 1499 1499 1499 1499 1500 1500 1501 1502 1504 1505 1506 1508 1509 1511 1513 1514 1516 1517 1518 1520 1521
1508 1506 1504 1503 1501 1497 1498 1498 1498 1498 1497 1497 1496 1497 1498 1497 1497 1497 1496 1496 1496 1495 1495 1495 1495 1495 1495 1495 1496 1497 1498 1499 1501 1502 1503 1505 1507 1508 1510 1511 1512 1514 1515 1516
1505 1506 1504 1501 1496 1497 1496 1495 1495 1494 1494 1493 1493 1494 1494 1493 1493 1493 1492 1492 1492 1491 1491 1491 1491 1491 1491 1491 1492 1493 1493 1494 1496 1498 1499 1500 1502 1504 1505 1507 1508 1509 1510 1511
1504 1504 1500 1497 1495 1495 1492 1492 1491 1490 1489 1489 1489 1489 1489 1489 1489 1488 1488 1488 1487 1487 1487 1487 1486 1486 1486 1487 1487 1488 1489 1490 1492 1493 1494 1496 1497 1499 1500 1501 1502 1503 1505 1506
1501 1500 1498 1493 1493 1492 1490 1489 1489 1487 1486 1486 1485 1485 1485 1485 1484 1483 1483 1483 1482 1482 1482 1482 1482 1482 1482 1482 1482 1483 1484 1486 1487 1488 1489 1491 1492 1493 1494 1495 1497 1498 1499 1500